Home > Weather > Koszalin > Past weeks

Flag for Poland Weather for the Past 2 Weeks in Koszalin, Poland

Now
44 °F

Clear.


Feels Like: 44 °F
Forecast: 44 / 60 °F
Wind: 1 mph from Southwest

Location: Koszalin

Current Time: May 5, 2016 at 1:42:54 AM

Latest Report: May 5, 2016 at 1:00 AM


Visibility: 14 mi

Pressure: 30.35 "Hg

Humidity: 87%

Dew Point: 41 °F

Location of KoszalinLocation

Historic Weather in Koszalin — Graph

°F

Koszalin Temperature Yesterday

Maximum temperature yesterday: 51 °F (at 4:00 PM)
Minimum temperature yesterday: 45 °F (at 11:00 PM)
Average temperature yesterday: 48 °F

High & Low Weather Summary for the Past Weeks

 TemperatureHumidityPressure
High63 °F (May 3, 2:00 PM)96% (Apr 26, 9:00 PM)30.35 "Hg (Apr 26, 9:00 PM)
Low30 °F (Apr 25, 6:00 AM)29% (Apr 30, 5:00 PM)29.44 "Hg (Apr 26, 7:00 PM)
Average47 °F69%30.01 "Hg
* Reported Apr 19 11:00 PM — May 4 11:00 PM, Koszalin, Weather by CustomWeather, © 2016

Note: Actual official high and low records may vary slightly from our data, if they occured in-between our weather recording intervals... More about our weather records

Advertising

Koszalin Weather History for the Previous 24 Hours

Scroll right to see more
 ConditionsComfort  
Time TempWeatherWind HumidityBarometerVisibility
11:00 PM
Wed, May 4
45 °FClear.2 mph86%30.35 "Hg11 mi
10:00 PM46 °FPassing clouds.1 mph86%30.35 "Hg9 mi
9:00 PM47 °FPassing clouds.1 mph84%30.34 "Hg11 mi
8:00 PM49 °FScattered clouds.3 mph81%30.33 "Hg14 mi
7:00 PM51 °FScattered clouds.3 mph76%30.32 "Hg12 mi
6:00 PM50 °FPartly sunny.5 mph75%30.32 "Hg14 mi
5:00 PM51 °FPartly sunny.6 mph70%30.32 "Hg15 mi
4:00 PM51 °FPartly sunny.6 mph63%30.32 "Hg22 mi
3:00 PM51 °FPartly sunny.6 mph70%30.32 "Hg22 mi
2:00 PM51 °FPartly sunny.6 mph76%30.32 "Hg16 mi
1:00 PM49 °FOvercast.7 mph79%30.31 "Hg16 mi
12:00 PM49 °FOvercast.6 mph82%30.29 "Hg17 mi
11:00 AM49 °FOvercast.6 mph83%30.28 "Hg17 mi
10:00 AM48 °FOvercast.6 mph81%30.26 "Hg16 mi
9:00 AM49 °FOvercast.5 mph79%30.25 "Hg19 mi
8:00 AM48 °FOvercast.5 mph84%30.23 "Hg17 mi
7:00 AM47 °FOvercast.6 mph86%30.21 "Hg22 mi
6:00 AM47 °FOvercast.3 mph89%30.19 "Hg19 mi
5:00 AM47 °FLow clouds.5 mph91%30.17 "Hg15 mi
4:00 AM46 °FOvercast.2 mph89%30.15 "Hg16 mi
3:00 AM45 °FPassing clouds.2 mph89%30.14 "Hg16 mi
2:00 AM47 °FPassing clouds.1 mph78%30.13 "Hg31 mi
1:00 AM48 °FPassing clouds.2 mph74%30.12 "Hg31 mi
Weather by CustomWeather, © 2016

See weather overviewHow to use our weather pages